Jack Brusco — WDC3066 — position and weather

sailwx.info

Track history (hours):
 
Tides and Currents Weather Stations Pressure Air Temp Water Temp Dewpoint Dewpoint Depression Visibility Wind Speed Wind Dir Waves Ship Positions

Jack Brusco

Owner: Brusco Tug & Barge, Inc., Longview, WA. More information available from US FCC via Universal Licensing System and Coast Guard Vessel Documentation Center.

Last reported at 2016-Aug-27 19:30 UTC. Time now 2016-Aug-27 20:36 UTC.
Position N 35°41' W 121°28'.

Length 36 m; draft 5.2 m.

Type: Tug. MMSI: 3699086.

Date/timePositionNaut miles runAvg speedWind from/ knotsBaromVisibWave heightAir tempDewpointWater temp
2016-Aug-27 19:30N 35°41' W 121°28'9 9.2
2016-Aug-27 18:33N 35°35' W 121°21'212 8.4
2016-Aug-26 17:19N 33°20' W 118°02'8 9.5
2016-Aug-26 16:30N 33°14' W 117°57'5 5.4
2016-Aug-26 15:33N 33°10' W 117°53'10 9.8
2016-Aug-26 14:33N 33°03' W 117°44'10 9.7
2016-Aug-26 13:33N 32°56' W 117°37'10 9.5
2016-Aug-26 12:33N 32°47' W 117°33'10 9.6
2016-Aug-26 11:30N 32°37' W 117°30'  
Track history (hours):
 
Tides and Currents Weather Stations Pressure Air Temp Water Temp Dewpoint Dewpoint Depression Visibility Wind Speed Wind Dir Waves Ship Positions

Jack Brusco

Owner: Brusco Tug & Barge, Inc., Longview, WA. More information available from US FCC via Universal Licensing System and Coast Guard Vessel Documentation Center.

Last reported at 2016-Aug-27 19:30 UTC. Time now 2016-Aug-27 20:36 UTC.
Position N 35°41' W 121°28'.

Length 36 m; draft 5.2 m.

Type: Tug. MMSI: 3699086.

Date/timePositionNaut miles runAvg speedWind from/ knotsBaromVisibWave heightAir tempDewpointWater temp
2016-Aug-27 19:30N 35°41' W 121°28'9 9.2
2016-Aug-27 18:33N 35°35' W 121°21'212 8.4
2016-Aug-26 17:19N 33°20' W 118°02'8 9.5
2016-Aug-26 16:30N 33°14' W 117°57'5 5.4
2016-Aug-26 15:33N 33°10' W 117°53'10 9.8
2016-Aug-26 14:33N 33°03' W 117°44'10 9.7
2016-Aug-26 13:33N 32°56' W 117°37'10 9.5
2016-Aug-26 12:33N 32°47' W 117°33'10 9.6
2016-Aug-26 11:30N 32°37' W 117°30'  

Dump ship's entire track history